Location: Basse Occidentale du Courleau
(48.3833°N, 4.8333°W)
Time: 03:49:32
(UTC+00:00)

Nadezhda 3 Rocket - Pass Details

Date: 05 July 2020
Orbit: 957 x 1000 km, 82.9° (Epoch: 11 August)

Event Time Altitude Azimuth Distance (km) Brightness Sun altitude
Rises 23:01:05 0° 349° (N) 3,735 8.8 -16.6°
Reaches altitude 10° 23:03:37 10° 349° (N) 2,780 7.7 -16.7°
Maximum altitude 23:10:01 81° 263° (W) 1,013 4.1 -17.0°
Enters shadow 23:13:53 25° 179° (S) 1,866 4.9 -17.2°
